KITSAT 3

Satellite information

Favourite Embed

Satellite Type and Status

PAYLOADIN ORBIT

Key statistics

Satellite KITSAT 3 at a glance.

Uptime

9647

Days in orbit

Revolutions

≈ 14.6

Per day

Orbit

SSO

Sun Synchronous Orbit

Inclination

98.6

Latest

Satellite identification and parameters

Extended collection of information and parameters for KITSAT 3.

Object identification

Identified? True

Debris? False

Object name: KITSAT 3

International designator: 1999-029A

Object number (NORAD): 25756

Object ID (CCSDS): 25756

Country: SOUTH KOREA (SKOR)

Current information (Y/N): Y

RCS size: MEDIUM

Orbital parameters

Period: 98.927 minutes

Inclination: 98.6451 deg

SMA: 7085.49 km

Apoapsis: 715.922 km

Periapsis: 698.787 km

RAAN: 318.4718 deg

Eccentricy: 0.00120919

Argument of periapsis: 268.7352 deg

Mean anomaly: 91.2459 deg

Mean motion: 14.5561983 rev/day

Mean motion (dot): 0.0000047 rev/day2

B* drag term: 0.00011907978 1/REarth

Two-line elements (TLE)

Creation date: Oct. 23, 2025, 2:46 a.m.

Reference frame: TEME

Reference center: EARTH

Epoch: Oct. 22, 2025, 8:54 p.m. UTC

TLE line 0: 0 KITSAT 3

TLE line 1: 1 25756U 99029A 25295.87139140 .00000470 00000-0 11908-3 0 9993

TLE line 2: 2 25756 98.6451 318.4718 0012092 268.7352 91.2459 14.55619830400500

Live tracking on map

Real-time ground track for satellite KITSAT 3.

In-orbit conjunctions

A list of the most updated potential collisions computed for object KITSAT 3.

Target Orbit TCA Probability of collision Miss distance Type
COSMOS 2251 DEB LEO 2025-09-09 08:17:26 0.0003078957 632.0 (m) DEBRIS
NOAA 16 DEB SSO 2025-04-25 04:28:24 0.000295055 95.0 (m) DEBRIS
COSMOS 1275 DEB LEO 2025-03-23 01:29:55 0.0005369085 29.0 (m) DEBRIS
DELTA 1 DEB SSO 2024-11-10 20:31:55 0.0001589543 454.0 (m) DEBRIS
FENGYUN 1C DEB SSO 2024-10-09 22:45:34 0.0001015735 127.0 (m) DEBRIS

Associated space launch

IRS-P4 (Indian Remote Sensing Satellite) or Oceansat is the first indian satellite primarily built for Ocean applications. Kitsat (Korean Institute of Technology Satellite 3), renamed on orbit as Uribyol 3, was the first Korean satellite in true sense and was launched by an Indian PSLV-G (2) rocket in May 1999.

KITSAT 3 was lifted into orbit during the mission ‘PSLV | IRS-P4 & Uribyol-3’, on board a PSLV space rocket.

The launch took place on May 26, 1999, 6:22 a.m. from Satish Dhawan Space Centre First Launch Pad.

For more information about the launch, click the button.

Launch to space PSLV | IRS-P4 & Uribyol-3
PSLV | IRS-P4 & Uribyol-3

Agency: N/A

Status: Launch Successful

Launch date: May 26, 1999, 6:22 a.m. UTC

Rocket: PSLV

Launch pad: Satish Dhawan Space Centre First Launch Pad

Location: Satish Dhawan Space Centre, India

...

Latest news about this satellite

There are no fresh news available about this satellite. Check back as we update our databases every day.


Newsletter sign-up

Weekly statistics, charts and insights to help you stay on top of the space industry.